Showing default

GONETS D1 5, 24729

Orbit data source: Space-Track

GONETS D1 5, 24729 is a payload satellite owned by Gonets (CIS) in LEO that was launched on Fri, 14 Feb 1997 UTC via a TSIKLON-3 launch vehicle from the Plesetsk Missile And Space Complex (PKMTR). Payload-class satellites include a variety of spacecraft equipped with specific instruments for various scientific and technological missions. These include communications satellites like Starlink; space stations such as the ISS; scientific satellites like the Hubble; Earth observation satellites from companies like Planet Labs, Umbra, and HawkEye 360; GPS; miniature CubeSats for education and research; and military/defense satellites.

Loading next visibility...
Identifier
24729, 1997-006E
Orbit
LEO
Country
Flag of CISCIS
Related business
Manufacturer
NPO PM
Mission
Non-operational Civil Communications
Bus & Motor
STRELA-3, Unknown motor
Mass
225 kg wet, 225 kg dry
Launch date (UTC)
1997-02-14 (29 years ago)
Launch vehicle
TSIKLON-3
Launch site
Plesetsk Missile And Space Complex (PKMTR)
Object type
Payload
Rocket body
Debris
Shape & HBR
Cyl + 1 Ant, 3.5 m
Radar Cross Section
1.798 m², Medium (>0.1 m² and < 1m²)

Expand to show TLE details & history
Last TLE update: 7 hours ago

TLE from 7 hours ago
0 GONETS D1 5
1 24729U 97006E   25308.17015411  .00000021  00000-0  56724-4 0  9995
2 24729  82.6030  25.9463 0004918  54.9059  10.6466 12.62979668324051
Epoch: 2025-11-04T04:05Z
TLE epoch observation values (Epoch: 2025-11-04T04:05:01.315Z)
Latitude
64.61545°
Longitude
-63.1721°
Altitude
1,418.017 km
Speed
7.159 km/s
True Right ascension
02h 46m 58s
True Declination
64° 29' 36"
Sunlit
Object was in full shadow at epoch
Visualization orbit readout
Latitude
Unknown
Longitude
Unknown
Altitude
Unknown
Speed
Unknown
Apparent Right ascension
Unknown
Apparent Declination
Unknown
Sunlit
N/A
Visualization observer readout
Local Sidereal Time
06:55:08
Azimuth
Unknown
Elevation
Unknown
Doppler factor
Unknown
Orbital elements
Apogee altitude
1,411.818 km
Perigee altitude
1,404.159 km
Semi-major axis
7,786.126 km
Eccentricity
0.00049
Inclination
82.603°
RAAN
25.9463°
Arg. of periapsis
54.9059°
True anomaly
10.65702°
Mean anomaly
10.6466°
Eccentric anomaly
10.65181°
Mean motion
3.15908 °/min
Orbital period
113.96 mins
BSTAR
0.000056724
Loading maneuver chart data...
Computing Atmospheric mass density...
Loading historical data...
Loading historical data...
Loading historical data...
Loading historical data...
Loading historical data...
Loading historical data...
Loading historical data...

Documentation

Showing up to 5 results
|